Year,Month,Day,Hour,Minute,Value (Times are PST for temperature in C)
2014,09,15,00,00,12.30
2014,09,15,00,01,12.30
2014,09,15,00,02,12.30
2014,09,15,00,03,12.20
2014,09,15,00,04,12.20
2014,09,15,00,05,12.20
2014,09,15,00,06,12.20
2014,09,15,00,07,12.20
2014,09,15,00,08,12.20
2014,09,15,00,09,12.20
2014,09,15,00,10,12.10
2014,09,15,00,11,12.10
2014,09,15,00,12,12.10
2014,09,15,00,13,12.10
2014,09,15,00,14,12.10
2014,09,15,00,15,12.10
2014,09,15,00,16,12.10
2014,09,15,00,17,12.10
2014,09,15,00,18,12.10
2014,09,15,00,19,12.10
2014,09,15,00,20,12.10
2014,09,15,00,21,12.10
2014,09,15,00,22,12.10
2014,09,15,00,23,12.10
2014,09,15,00,24,12.10
2014,09,15,00,25,12.10
2014,09,15,00,26,12.10
2014,09,15,00,27,12.10
2014,09,15,00,28,12.10
2014,09,15,00,29,12.10
2014,09,15,00,30,12.10
2014,09,15,00,31,12.10
2014,09,15,00,32,12.10
2014,09,15,00,33,12.10
2014,09,15,00,34,12.10
2014,09,15,00,35,12.10
2014,09,15,00,36,12.10
2014,09,15,00,37,12.10
2014,09,15,00,38,12.10
2014,09,15,00,39,12.10
2014,09,15,00,40,12.10
2014,09,15,00,41,12.10
2014,09,15,00,42,12.10
2014,09,15,00,43,12.10
2014,09,15,00,44,12.00
2014,09,15,00,45,12.00
2014,09,15,00,46,12.00
2014,09,15,00,47,11.90
2014,09,15,00,48,11.90
2014,09,15,00,49,11.90
2014,09,15,00,50,11.90
2014,09,15,00,51,11.80
2014,09,15,00,52,11.80
2014,09,15,00,53,11.80
2014,09,15,00,54,11.80
2014,09,15,00,55,11.80
2014,09,15,00,56,11.80
2014,09,15,00,57,11.80
2014,09,15,00,58,11.80
2014,09,15,00,59,11.80
2014,09,15,01,00,11.70
2014,09,15,01,01,11.70
2014,09,15,01,02,11.70
2014,09,15,01,03,11.70
2014,09,15,01,04,11.70
2014,09,15,01,05,11.70
2014,09,15,01,06,11.70
2014,09,15,01,07,11.60
2014,09,15,01,08,11.60
2014,09,15,01,09,11.60
2014,09,15,01,10,11.60
2014,09,15,01,11,11.60
2014,09,15,01,12,11.60
2014,09,15,01,13,11.60
2014,09,15,01,14,11.60
2014,09,15,01,15,11.60
2014,09,15,01,16,11.60
2014,09,15,01,17,11.60
2014,09,15,01,18,11.60
2014,09,15,01,19,11.60
2014,09,15,01,20,11.60
2014,09,15,01,21,11.50
2014,09,15,01,22,11.50
2014,09,15,01,23,11.50
2014,09,15,01,24,11.40
2014,09,15,01,25,11.40
2014,09,15,01,26,11.40
2014,09,15,01,27,11.40
2014,09,15,01,28,11.40
2014,09,15,01,29,11.40
2014,09,15,01,30,11.40
2014,09,15,01,31,11.40
2014,09,15,01,32,11.30
2014,09,15,01,33,11.30
2014,09,15,01,34,11.30
2014,09,15,01,35,11.30
2014,09,15,01,36,11.30
2014,09,15,01,37,11.30
2014,09,15,01,38,11.30
2014,09,15,01,39,11.30
2014,09,15,01,40,11.30
2014,09,15,01,41,11.30
2014,09,15,01,42,11.30
2014,09,15,01,43,11.30
2014,09,15,01,44,11.30
2014,09,15,01,45,11.30
2014,09,15,01,46,11.30
2014,09,15,01,47,11.30
2014,09,15,01,48,11.30
2014,09,15,01,49,11.30
2014,09,15,01,50,11.30
2014,09,15,01,51,11.30
2014,09,15,01,52,11.30
2014,09,15,01,53,11.30
2014,09,15,01,54,11.30
2014,09,15,01,55,11.30
2014,09,15,01,56,11.30
2014,09,15,01,57,11.30
2014,09,15,01,58,11.30
2014,09,15,01,59,11.30
2014,09,15,02,00,11.30
2014,09,15,02,01,11.30
2014,09,15,02,02,11.30
2014,09,15,02,03,11.30
2014,09,15,02,04,11.30
2014,09,15,02,05,11.30
2014,09,15,02,06,11.30
2014,09,15,02,07,11.30
2014,09,15,02,08,11.20
2014,09,15,02,09,11.20
2014,09,15,02,10,11.20
2014,09,15,02,11,11.10
2014,09,15,02,12,11.10
2014,09,15,02,13,11.10
2014,09,15,02,14,11.10
2014,09,15,02,15,11.00
2014,09,15,02,16,11.00
2014,09,15,02,17,11.00
2014,09,15,02,18,11.00
2014,09,15,02,19,10.90
2014,09,15,02,20,10.90
2014,09,15,02,21,10.90
2014,09,15,02,22,10.90
2014,09,15,02,23,10.90
2014,09,15,02,24,11.00
2014,09,15,02,25,11.00
2014,09,15,02,26,11.00
2014,09,15,02,27,11.00
2014,09,15,02,28,11.00
2014,09,15,02,29,11.00
2014,09,15,02,30,11.00
2014,09,15,02,31,11.00
2014,09,15,02,32,11.00
2014,09,15,02,33,11.00
2014,09,15,02,34,11.00
2014,09,15,02,35,11.00
2014,09,15,02,36,11.10
2014,09,15,02,37,11.10
2014,09,15,02,38,11.10
2014,09,15,02,39,11.10
2014,09,15,02,40,11.10
2014,09,15,02,41,11.10
2014,09,15,02,42,11.10
2014,09,15,02,43,11.00
2014,09,15,02,44,11.00
2014,09,15,02,45,11.00
2014,09,15,02,46,11.00
2014,09,15,02,47,10.90
2014,09,15,02,48,10.90
2014,09,15,02,49,10.90
2014,09,15,02,50,10.90
2014,09,15,02,51,10.90
2014,09,15,02,52,10.80
2014,09,15,02,53,10.80
2014,09,15,02,54,10.80
2014,09,15,02,55,10.80
2014,09,15,02,56,10.80
2014,09,15,02,57,10.70
2014,09,15,02,58,10.70
2014,09,15,02,59,10.70
2014,09,15,03,00,10.70
2014,09,15,03,01,10.70
2014,09,15,03,02,10.70
2014,09,15,03,03,10.70
2014,09,15,03,04,10.70
2014,09,15,03,05,10.70
2014,09,15,03,06,10.70
2014,09,15,03,07,10.70
2014,09,15,03,08,10.70
2014,09,15,03,09,10.60
2014,09,15,03,10,10.60
2014,09,15,03,11,10.60
2014,09,15,03,12,10.60
2014,09,15,03,13,10.60
2014,09,15,03,14,10.60
2014,09,15,03,15,10.60
2014,09,15,03,16,10.60
2014,09,15,03,17,10.60
2014,09,15,03,18,10.70
2014,09,15,03,19,10.70
2014,09,15,03,20,10.70
2014,09,15,03,21,10.70
2014,09,15,03,22,10.60
2014,09,15,03,23,10.60
2014,09,15,03,24,10.60
2014,09,15,03,25,10.60
2014,09,15,03,26,10.60
2014,09,15,03,27,10.60
2014,09,15,03,28,10.60
2014,09,15,03,29,10.60
2014,09,15,03,30,10.60
2014,09,15,03,31,10.60
2014,09,15,03,32,10.60
2014,09,15,03,33,10.60
2014,09,15,03,34,10.50
2014,09,15,03,35,10.50
2014,09,15,03,36,10.50
2014,09,15,03,37,10.50
2014,09,15,03,38,10.50
2014,09,15,03,39,10.50
2014,09,15,03,40,10.40
2014,09,15,03,41,10.40
2014,09,15,03,42,10.40
2014,09,15,03,43,10.40
2014,09,15,03,44,10.40
2014,09,15,03,45,10.40
2014,09,15,03,46,10.40
2014,09,15,03,47,10.40
2014,09,15,03,48,10.40
2014,09,15,03,49,10.40
2014,09,15,03,50,10.50
2014,09,15,03,51,10.40
2014,09,15,03,52,10.40
2014,09,15,03,53,10.40
2014,09,15,03,54,10.50
2014,09,15,03,55,10.40
2014,09,15,03,56,10.40
2014,09,15,03,57,10.40
2014,09,15,03,58,10.40
2014,09,15,03,59,10.40
2014,09,15,04,00,10.40
2014,09,15,04,01,10.40
2014,09,15,04,02,10.40
2014,09,15,04,03,10.40
2014,09,15,04,04,10.40
2014,09,15,04,05,10.30
2014,09,15,04,06,10.30
2014,09,15,04,07,10.40
2014,09,15,04,08,10.30
2014,09,15,04,09,10.40
2014,09,15,04,10,10.40
2014,09,15,04,11,10.40
2014,09,15,04,12,10.30
2014,09,15,04,13,10.30
2014,09,15,04,14,10.30
2014,09,15,04,15,10.30
2014,09,15,04,16,10.30
2014,09,15,04,17,10.30
2014,09,15,04,18,10.30
2014,09,15,04,19,10.30
2014,09,15,04,20,10.20
2014,09,15,04,21,10.20
2014,09,15,04,22,10.20
2014,09,15,04,23,10.20
2014,09,15,04,24,10.20
2014,09,15,04,25,10.20
2014,09,15,04,26,10.20
2014,09,15,04,27,10.20
2014,09,15,04,28,10.20
2014,09,15,04,29,10.20
2014,09,15,04,30,10.20
2014,09,15,04,31,10.20
2014,09,15,04,32,10.20
2014,09,15,04,33,10.10
2014,09,15,04,34,10.10
2014,09,15,04,35,10.10
2014,09,15,04,36,10.10
2014,09,15,04,37,10.10
2014,09,15,04,38,10.10
2014,09,15,04,39,10.10
2014,09,15,04,40,10.10
2014,09,15,04,41,10.00
2014,09,15,04,42,10.00
2014,09,15,04,43,9.90
2014,09,15,04,44,9.90
2014,09,15,04,45,9.90
2014,09,15,04,46,9.90
2014,09,15,04,47,9.90
2014,09,15,04,48,9.90
2014,09,15,04,49,9.90
2014,09,15,04,50,9.90
2014,09,15,04,51,9.90
2014,09,15,04,52,9.90
2014,09,15,04,53,9.80
2014,09,15,04,54,9.80
2014,09,15,04,55,9.80
2014,09,15,04,56,9.80
2014,09,15,04,57,9.80
2014,09,15,04,58,9.80
2014,09,15,04,59,9.70
2014,09,15,05,00,9.70
2014,09,15,05,01,9.70
2014,09,15,05,02,9.70
2014,09,15,05,03,9.70
2014,09,15,05,04,9.70
2014,09,15,05,05,9.70
2014,09,15,05,06,9.60
2014,09,15,05,07,9.60
2014,09,15,05,08,9.60
2014,09,15,05,09,9.60
2014,09,15,05,10,9.50
2014,09,15,05,11,9.50
2014,09,15,05,12,9.40
2014,09,15,05,13,9.40
2014,09,15,05,14,9.40
2014,09,15,05,15,9.40
2014,09,15,05,16,9.30
2014,09,15,05,17,9.30
2014,09,15,05,18,9.30
2014,09,15,05,19,9.30
2014,09,15,05,20,9.20
2014,09,15,05,21,9.20
2014,09,15,05,22,9.20
2014,09,15,05,23,9.10
2014,09,15,05,24,9.10
2014,09,15,05,25,9.10
2014,09,15,05,26,9.00
2014,09,15,05,27,9.00
2014,09,15,05,28,9.00
2014,09,15,05,29,9.00
2014,09,15,05,30,9.00
2014,09,15,05,31,9.00
2014,09,15,05,32,9.00
2014,09,15,05,33,9.00
2014,09,15,05,34,9.00
2014,09,15,05,35,9.00
2014,09,15,05,36,9.00
2014,09,15,05,37,9.10
2014,09,15,05,38,9.10
2014,09,15,05,39,9.10
2014,09,15,05,40,9.10
2014,09,15,05,41,9.10
2014,09,15,05,42,9.10
2014,09,15,05,43,9.10
2014,09,15,05,44,9.10
2014,09,15,05,45,9.10
2014,09,15,05,46,9.20
2014,09,15,05,47,9.20
2014,09,15,05,48,9.20
2014,09,15,05,49,9.20
2014,09,15,05,50,9.20
2014,09,15,05,51,9.20
2014,09,15,05,52,9.10
2014,09,15,05,53,9.10
2014,09,15,05,54,9.10
2014,09,15,05,55,9.10
2014,09,15,05,56,9.10
2014,09,15,05,57,9.10
2014,09,15,05,58,9.10
2014,09,15,05,59,9.00
2014,09,15,06,00,9.00
2014,09,15,06,01,9.00
2014,09,15,06,02,9.00
2014,09,15,06,03,9.00
2014,09,15,06,04,9.00
2014,09,15,06,05,8.90
2014,09,15,06,06,8.90
2014,09,15,06,07,8.90
2014,09,15,06,08,8.90
2014,09,15,06,09,8.90
2014,09,15,06,10,9.00
2014,09,15,06,11,9.00
2014,09,15,06,12,9.00
2014,09,15,06,13,9.10
2014,09,15,06,14,9.10
2014,09,15,06,15,9.10
2014,09,15,06,16,9.10
2014,09,15,06,17,9.00
2014,09,15,06,18,9.00
2014,09,15,06,19,9.00
2014,09,15,06,20,8.90
2014,09,15,06,21,8.90
2014,09,15,06,22,9.00
2014,09,15,06,23,8.90
2014,09,15,06,24,8.90
2014,09,15,06,25,8.90
2014,09,15,06,26,9.00
2014,09,15,06,27,9.00
2014,09,15,06,28,9.00
2014,09,15,06,29,9.00
2014,09,15,06,30,9.10
2014,09,15,06,31,9.10
2014,09,15,06,32,9.20
2014,09,15,06,33,9.20
2014,09,15,06,34,9.20
2014,09,15,06,35,9.20
2014,09,15,06,36,9.20
2014,09,15,06,37,9.20
2014,09,15,06,38,9.20
2014,09,15,06,39,9.20
2014,09,15,06,40,9.20
2014,09,15,06,41,9.20
2014,09,15,06,42,9.20
2014,09,15,06,43,9.20
2014,09,15,06,44,9.20
2014,09,15,06,45,9.20
2014,09,15,06,46,9.30
2014,09,15,06,47,9.30
2014,09,15,06,48,9.20
2014,09,15,06,49,9.20
2014,09,15,06,50,9.20
2014,09,15,06,51,9.10
2014,09,15,06,52,9.10
2014,09,15,06,53,9.00
2014,09,15,06,54,9.00
2014,09,15,06,55,9.00
2014,09,15,06,56,8.90
2014,09,15,06,57,8.90
2014,09,15,06,58,8.90
2014,09,15,06,59,8.90
2014,09,15,07,00,8.80
2014,09,15,07,01,8.80
2014,09,15,07,02,8.80
2014,09,15,07,03,8.80
2014,09,15,07,04,8.70
2014,09,15,07,05,8.70
2014,09,15,07,06,8.70
2014,09,15,07,07,8.70
2014,09,15,07,08,8.70
2014,09,15,07,09,8.70
2014,09,15,07,10,8.70
2014,09,15,07,11,8.70
2014,09,15,07,12,8.70
2014,09,15,07,13,8.70
2014,09,15,07,14,8.70
2014,09,15,07,15,8.70
2014,09,15,07,16,8.70
2014,09,15,07,17,8.80
2014,09,15,07,18,8.80
2014,09,15,07,19,8.80
2014,09,15,07,20,8.80
2014,09,15,07,21,8.80
2014,09,15,07,22,8.80
2014,09,15,07,23,8.80
2014,09,15,07,24,8.90
2014,09,15,07,25,8.90
2014,09,15,07,26,8.90
2014,09,15,07,27,8.90
2014,09,15,07,28,9.00
2014,09,15,07,29,9.00
2014,09,15,07,30,9.10
2014,09,15,07,31,9.10
2014,09,15,07,32,9.20
2014,09,15,07,33,9.20
2014,09,15,07,34,9.20
2014,09,15,07,35,9.30
2014,09,15,07,36,9.40
2014,09,15,07,37,9.40
2014,09,15,07,38,9.50
2014,09,15,07,39,9.60
2014,09,15,07,40,9.60
2014,09,15,07,41,9.70
2014,09,15,07,42,9.70
2014,09,15,07,43,9.80
2014,09,15,07,44,9.90
2014,09,15,07,45,10.00
2014,09,15,07,46,10.00
2014,09,15,07,47,10.10
2014,09,15,07,48,10.20
2014,09,15,07,49,10.20
2014,09,15,07,50,10.30
2014,09,15,07,51,10.30
2014,09,15,07,52,10.40
2014,09,15,07,53,10.50
2014,09,15,07,54,10.60
2014,09,15,07,55,10.80
2014,09,15,07,56,10.90
2014,09,15,07,57,11.00
2014,09,15,07,58,11.10
2014,09,15,07,59,11.20
2014,09,15,08,00,11.30
2014,09,15,08,01,11.40
2014,09,15,08,02,11.60
2014,09,15,08,03,11.70
2014,09,15,08,04,11.90
2014,09,15,08,05,12.00
2014,09,15,08,06,12.10
2014,09,15,08,07,12.10
2014,09,15,08,08,12.20
2014,09,15,08,09,12.30
2014,09,15,08,10,12.30
2014,09,15,08,11,12.30
2014,09,15,08,12,12.40
2014,09,15,08,13,12.40
2014,09,15,08,14,12.50
2014,09,15,08,15,12.60
2014,09,15,08,16,12.60
2014,09,15,08,17,12.70
2014,09,15,08,18,12.90
2014,09,15,08,19,13.10
2014,09,15,08,20,13.20
2014,09,15,08,21,13.40
2014,09,15,08,22,13.50
2014,09,15,08,23,13.60
2014,09,15,08,24,13.80
2014,09,15,08,25,13.90
2014,09,15,08,26,14.00
2014,09,15,08,27,14.10
2014,09,15,08,28,14.30
2014,09,15,08,29,14.40
2014,09,15,08,30,14.50
2014,09,15,08,31,14.70
2014,09,15,08,32,14.80
2014,09,15,08,33,14.90
2014,09,15,08,34,14.90
2014,09,15,08,35,15.00
2014,09,15,08,36,15.10
2014,09,15,08,37,15.20
2014,09,15,08,38,15.30
2014,09,15,08,39,15.30
2014,09,15,08,40,15.40
2014,09,15,08,41,15.50
2014,09,15,08,42,15.60
2014,09,15,08,43,15.70
2014,09,15,08,44,15.70
2014,09,15,08,45,15.70
2014,09,15,08,46,15.80
2014,09,15,08,47,15.80
2014,09,15,08,48,15.90
2014,09,15,08,49,15.90
2014,09,15,08,50,16.00
2014,09,15,08,51,16.10
2014,09,15,08,52,16.20
2014,09,15,08,53,16.40
2014,09,15,08,54,16.50
2014,09,15,08,55,16.60
2014,09,15,08,56,16.70
2014,09,15,08,57,16.90
2014,09,15,08,58,17.00
2014,09,15,08,59,17.20
2014,09,15,09,00,17.30
2014,09,15,09,01,17.50
2014,09,15,09,02,17.60
2014,09,15,09,03,17.70
2014,09,15,09,04,17.80
2014,09,15,09,05,17.90
2014,09,15,09,06,18.00
2014,09,15,09,07,18.10
2014,09,15,09,08,18.30
2014,09,15,09,09,18.40
2014,09,15,09,10,18.50
2014,09,15,09,11,18.70
2014,09,15,09,12,18.80
2014,09,15,09,13,18.90
2014,09,15,09,14,19.00
2014,09,15,09,15,19.10
2014,09,15,09,16,19.20
2014,09,15,09,17,19.30
2014,09,15,09,18,19.40
2014,09,15,09,19,19.50
2014,09,15,09,20,19.60
2014,09,15,09,21,19.70
2014,09,15,09,22,19.80
2014,09,15,09,23,19.90
2014,09,15,09,24,20.00
2014,09,15,09,25,20.10
2014,09,15,09,26,20.20
2014,09,15,09,27,20.30
2014,09,15,09,28,20.30
2014,09,15,09,29,20.40
2014,09,15,09,30,20.40
2014,09,15,09,31,20.50
2014,09,15,09,32,20.50
2014,09,15,09,33,20.70
2014,09,15,09,34,20.70
2014,09,15,09,35,20.80
2014,09,15,09,36,20.90
2014,09,15,09,37,21.00
2014,09,15,09,38,21.00
2014,09,15,09,39,21.10
2014,09,15,09,40,21.20
2014,09,15,09,41,21.20
2014,09,15,09,42,21.30
2014,09,15,09,43,21.30
2014,09,15,09,44,21.30
2014,09,15,09,45,21.30
2014,09,15,09,46,21.40
2014,09,15,09,47,21.40
2014,09,15,09,48,21.40
2014,09,15,09,49,21.50
2014,09,15,09,50,21.60
2014,09,15,09,51,21.70
2014,09,15,09,52,21.80
2014,09,15,09,53,21.80
2014,09,15,09,54,21.90
2014,09,15,09,55,22.00
2014,09,15,09,56,22.00
2014,09,15,09,57,22.10
2014,09,15,09,58,22.10
2014,09,15,09,59,22.20
2014,09,15,10,00,22.20
2014,09,15,10,01,22.30
2014,09,15,10,02,22.30
2014,09,15,10,03,22.30
2014,09,15,10,04,22.30
2014,09,15,10,05,22.30
2014,09,15,10,06,22.30
2014,09,15,10,07,22.40
2014,09,15,10,08,22.40
2014,09,15,10,09,22.40
2014,09,15,10,10,22.50
2014,09,15,10,11,22.50
2014,09,15,10,12,22.50
2014,09,15,10,13,22.60
2014,09,15,10,14,22.60
2014,09,15,10,15,22.60
2014,09,15,10,16,22.60
2014,09,15,10,17,22.60
2014,09,15,10,18,22.70
2014,09,15,10,19,22.70
2014,09,15,10,20,22.70
2014,09,15,10,21,22.80
2014,09,15,10,22,22.90
2014,09,15,10,23,22.90
2014,09,15,10,24,22.90
2014,09,15,10,25,22.90
2014,09,15,10,26,22.90
2014,09,15,10,27,22.90
2014,09,15,10,28,22.90
2014,09,15,10,29,22.90
2014,09,15,10,30,23.00
2014,09,15,10,31,23.00
2014,09,15,10,32,23.10
2014,09,15,10,33,23.10
2014,09,15,10,34,23.10
2014,09,15,10,35,23.10
2014,09,15,10,36,23.20
2014,09,15,10,37,23.30
2014,09,15,10,38,23.30
2014,09,15,10,39,23.40
2014,09,15,10,40,23.40
2014,09,15,10,41,23.50
2014,09,15,10,42,23.50
2014,09,15,10,43,23.50
2014,09,15,10,44,23.40
2014,09,15,10,45,23.40
2014,09,15,10,46,23.40
2014,09,15,10,47,23.40
2014,09,15,10,48,23.40
2014,09,15,10,49,23.40
2014,09,15,10,50,23.40
2014,09,15,10,51,23.50
2014,09,15,10,52,23.50
2014,09,15,10,53,23.60
2014,09,15,10,54,23.60
2014,09,15,10,55,23.60
2014,09,15,10,56,23.50
2014,09,15,10,57,23.40
2014,09,15,10,58,23.30
2014,09,15,10,59,23.30
2014,09,15,11,00,23.30
2014,09,15,11,01,23.40
2014,09,15,11,02,23.40
2014,09,15,11,03,23.50
2014,09,15,11,04,23.60
2014,09,15,11,05,23.60
2014,09,15,11,06,23.50
2014,09,15,11,07,23.50
2014,09,15,11,08,23.50
2014,09,15,11,09,23.60
2014,09,15,11,10,23.60
2014,09,15,11,11,23.60
2014,09,15,11,12,23.70
2014,09,15,11,13,23.70
2014,09,15,11,14,23.80
2014,09,15,11,15,23.90
2014,09,15,11,16,23.90
2014,09,15,11,17,23.90
2014,09,15,11,18,23.90
2014,09,15,11,19,23.90
2014,09,15,11,20,23.90
2014,09,15,11,21,23.90
2014,09,15,11,22,24.00
2014,09,15,11,23,24.00
2014,09,15,11,24,24.10
2014,09,15,11,25,24.10
2014,09,15,11,26,24.20
2014,09,15,11,27,24.20
2014,09,15,11,28,24.20
2014,09,15,11,29,24.20
2014,09,15,11,30,24.40
2014,09,15,11,31,24.50
2014,09,15,11,32,24.60
2014,09,15,11,33,24.80
2014,09,15,11,34,25.00
2014,09,15,11,35,25.10
2014,09,15,11,36,25.00
2014,09,15,11,37,25.00
2014,09,15,11,38,25.00
2014,09,15,11,39,25.10
2014,09,15,11,40,25.20
2014,09,15,11,41,25.30
2014,09,15,11,42,25.40
2014,09,15,11,43,25.50
2014,09,15,11,44,25.50
2014,09,15,11,45,25.60
2014,09,15,11,46,25.60
2014,09,15,11,47,25.50
2014,09,15,11,48,25.50
2014,09,15,11,49,25.50
2014,09,15,11,50,25.50
2014,09,15,11,51,25.50
2014,09,15,11,52,25.50
2014,09,15,11,53,25.60
2014,09,15,11,54,25.70
2014,09,15,11,55,25.80
2014,09,15,11,56,25.90
2014,09,15,11,57,25.90
2014,09,15,11,58,26.00
2014,09,15,11,59,26.00
2014,09,15,12,00,25.90
2014,09,15,12,01,25.80
2014,09,15,12,02,25.60
2014,09,15,12,03,25.40
2014,09,15,12,04,25.30
2014,09,15,12,05,25.20
2014,09,15,12,06,25.10
2014,09,15,12,07,25.00
2014,09,15,12,08,24.90
2014,09,15,12,09,24.90
2014,09,15,12,10,25.00
2014,09,15,12,11,25.00
2014,09,15,12,12,25.10
2014,09,15,12,13,25.10
2014,09,15,12,14,25.20
2014,09,15,12,15,25.20
2014,09,15,12,16,25.20
2014,09,15,12,17,25.30
2014,09,15,12,18,25.30
2014,09,15,12,19,25.20
2014,09,15,12,20,25.10
2014,09,15,12,21,25.10
2014,09,15,12,22,25.10
2014,09,15,12,23,25.10
2014,09,15,12,24,25.20
2014,09,15,12,25,25.30
2014,09,15,12,26,25.30
2014,09,15,12,27,25.20
2014,09,15,12,28,25.20
2014,09,15,12,29,25.20
2014,09,15,12,30,25.10
2014,09,15,12,31,25.10
2014,09,15,12,32,25.10
2014,09,15,12,33,25.10
2014,09,15,12,34,25.10
2014,09,15,12,35,25.20
2014,09,15,12,36,25.20
2014,09,15,12,37,25.30
2014,09,15,12,38,25.40
2014,09,15,12,39,25.50
2014,09,15,12,40,25.60
2014,09,15,12,41,25.60
2014,09,15,12,42,25.60
2014,09,15,12,43,25.60
2014,09,15,12,44,25.60
2014,09,15,12,45,25.70
2014,09,15,12,46,25.80
2014,09,15,12,47,25.80
2014,09,15,12,48,25.90
2014,09,15,12,49,25.90
2014,09,15,12,50,25.90
2014,09,15,12,51,25.90
2014,09,15,12,52,26.00
2014,09,15,12,53,26.00
2014,09,15,12,54,26.10
2014,09,15,12,55,26.20
2014,09,15,12,56,26.20
2014,09,15,12,57,26.30
2014,09,15,12,58,26.40
2014,09,15,12,59,26.50
2014,09,15,13,00,26.50
2014,09,15,13,01,26.60
2014,09,15,13,02,26.60
2014,09,15,13,03,26.70
2014,09,15,13,04,26.80
2014,09,15,13,05,26.80
2014,09,15,13,06,26.80
2014,09,15,13,07,26.80
2014,09,15,13,08,26.70
2014,09,15,13,09,26.70
2014,09,15,13,10,26.60
2014,09,15,13,11,26.60
2014,09,15,13,12,26.70
2014,09,15,13,13,26.70
2014,09,15,13,14,26.70
2014,09,15,13,15,26.70
2014,09,15,13,16,26.80
2014,09,15,13,17,26.80
2014,09,15,13,18,26.80
2014,09,15,13,19,26.80
2014,09,15,13,20,26.80
2014,09,15,13,21,26.70
2014,09,15,13,22,26.60
2014,09,15,13,23,26.60
2014,09,15,13,24,26.60
2014,09,15,13,25,26.60
2014,09,15,13,26,26.70
2014,09,15,13,27,26.80
2014,09,15,13,28,26.80
2014,09,15,13,29,26.90
2014,09,15,13,30,26.90
2014,09,15,13,31,27.00
2014,09,15,13,32,27.00
2014,09,15,13,33,27.10
2014,09,15,13,34,27.20
2014,09,15,13,35,27.30
2014,09,15,13,36,27.30
2014,09,15,13,37,27.40
2014,09,15,13,38,27.40
2014,09,15,13,39,27.50
2014,09,15,13,40,27.60
2014,09,15,13,41,27.70
2014,09,15,13,42,27.70
2014,09,15,13,43,27.70
2014,09,15,13,44,27.70
2014,09,15,13,45,27.70
2014,09,15,13,46,27.70
2014,09,15,13,47,27.70
2014,09,15,13,48,27.70
2014,09,15,13,49,27.70
2014,09,15,13,50,27.70
2014,09,15,13,51,27.60
2014,09,15,13,52,27.60
2014,09,15,13,53,27.60
2014,09,15,13,54,27.60
2014,09,15,13,55,27.60
2014,09,15,13,56,27.70
2014,09,15,13,57,27.70
2014,09,15,13,58,27.70
2014,09,15,13,59,27.70
2014,09,15,14,00,27.80
2014,09,15,14,01,27.80
2014,09,15,14,02,27.80
2014,09,15,14,03,27.90
2014,09,15,14,04,27.90
2014,09,15,14,05,27.90
2014,09,15,14,06,27.80
2014,09,15,14,07,27.70
2014,09,15,14,08,27.60
2014,09,15,14,09,27.50
2014,09,15,14,10,27.40
2014,09,15,14,11,27.40
2014,09,15,14,12,27.50
2014,09,15,14,13,27.50
2014,09,15,14,14,27.50
2014,09,15,14,15,27.50
2014,09,15,14,16,27.50
2014,09,15,14,17,27.40
2014,09,15,14,18,27.40
2014,09,15,14,19,27.40
2014,09,15,14,20,27.40
2014,09,15,14,21,27.40
2014,09,15,14,22,27.40
2014,09,15,14,23,27.40
2014,09,15,14,24,27.40
2014,09,15,14,25,27.30
2014,09,15,14,26,27.30
2014,09,15,14,27,27.30
2014,09,15,14,28,27.30
2014,09,15,14,29,27.30
2014,09,15,14,30,27.30
2014,09,15,14,31,27.30
2014,09,15,14,32,27.20
2014,09,15,14,33,27.00
2014,09,15,14,34,26.90
2014,09,15,14,35,26.90
2014,09,15,14,36,26.90
2014,09,15,14,37,26.90
2014,09,15,14,38,27.00
2014,09,15,14,39,27.00
2014,09,15,14,40,27.10
2014,09,15,14,41,27.00
2014,09,15,14,42,27.00
2014,09,15,14,43,26.90
2014,09,15,14,44,26.80
2014,09,15,14,45,26.70
2014,09,15,14,46,26.60
2014,09,15,14,47,26.60
2014,09,15,14,48,26.50
2014,09,15,14,49,26.50
2014,09,15,14,50,26.40
2014,09,15,14,51,26.40
2014,09,15,14,52,26.50
2014,09,15,14,53,26.50
2014,09,15,14,54,26.60
2014,09,15,14,55,26.60
2014,09,15,14,56,26.60
2014,09,15,14,57,26.70
2014,09,15,14,58,26.80
2014,09,15,14,59,26.80
2014,09,15,15,00,26.80
2014,09,15,15,01,26.80
2014,09,15,15,02,26.80
2014,09,15,15,03,26.80
2014,09,15,15,04,26.80
2014,09,15,15,05,26.80
2014,09,15,15,06,26.90
2014,09,15,15,07,26.90
2014,09,15,15,08,26.90
2014,09,15,15,09,27.00
2014,09,15,15,10,27.00
2014,09,15,15,11,27.00
2014,09,15,15,12,27.00
2014,09,15,15,13,27.00
2014,09,15,15,14,27.00
2014,09,15,15,15,26.90
2014,09,15,15,16,26.90
2014,09,15,15,17,26.90
2014,09,15,15,18,26.90
2014,09,15,15,19,26.90
2014,09,15,15,20,26.90
2014,09,15,15,21,26.90
2014,09,15,15,22,26.90
2014,09,15,15,23,26.90
2014,09,15,15,24,26.90
2014,09,15,15,25,26.90
2014,09,15,15,26,26.90
2014,09,15,15,27,26.90
2014,09,15,15,28,27.00
2014,09,15,15,29,26.90
2014,09,15,15,30,26.90
2014,09,15,15,31,26.90
2014,09,15,15,32,27.00
2014,09,15,15,33,27.00
2014,09,15,15,34,27.00
2014,09,15,15,35,27.10
2014,09,15,15,36,27.10
2014,09,15,15,37,27.10
2014,09,15,15,38,27.10
2014,09,15,15,39,27.10
2014,09,15,15,40,27.10
2014,09,15,15,41,27.10
2014,09,15,15,42,27.10
2014,09,15,15,43,27.10
2014,09,15,15,44,27.00
2014,09,15,15,45,27.00
2014,09,15,15,46,26.90
2014,09,15,15,47,26.90
2014,09,15,15,48,26.90
2014,09,15,15,49,26.90
2014,09,15,15,50,26.90
2014,09,15,15,51,26.90
2014,09,15,15,52,27.00
2014,09,15,15,53,27.00
2014,09,15,15,54,27.00
2014,09,15,15,55,27.00
2014,09,15,15,56,27.00
2014,09,15,15,57,27.10
2014,09,15,15,58,27.10
2014,09,15,15,59,27.10
2014,09,15,16,00,27.10
2014,09,15,16,01,27.10
2014,09,15,16,02,27.10
2014,09,15,16,03,27.10
2014,09,15,16,04,27.10
2014,09,15,16,05,27.10
2014,09,15,16,06,27.10
2014,09,15,16,07,27.00
2014,09,15,16,08,27.00
2014,09,15,16,09,27.00
2014,09,15,16,10,27.00
2014,09,15,16,11,26.90
2014,09,15,16,12,26.90
2014,09,15,16,13,26.90
2014,09,15,16,14,26.80
2014,09,15,16,15,26.80
2014,09,15,16,16,26.80
2014,09,15,16,17,26.80
2014,09,15,16,18,26.80
2014,09,15,16,19,26.80
2014,09,15,16,20,26.70
2014,09,15,16,21,26.70
2014,09,15,16,22,26.60
2014,09,15,16,23,26.60
2014,09,15,16,24,26.60
2014,09,15,16,25,26.50
2014,09,15,16,26,26.50
2014,09,15,16,27,26.40
2014,09,15,16,28,26.40
2014,09,15,16,29,26.40
2014,09,15,16,30,26.40
2014,09,15,16,31,26.40
2014,09,15,16,32,26.30
2014,09,15,16,33,26.30
2014,09,15,16,34,26.30
2014,09,15,16,35,26.30
2014,09,15,16,36,26.30
2014,09,15,16,37,26.30
2014,09,15,16,38,26.30
2014,09,15,16,39,26.30
2014,09,15,16,40,26.30
2014,09,15,16,41,26.20
2014,09,15,16,42,26.20
2014,09,15,16,43,26.20
2014,09,15,16,44,26.20
2014,09,15,16,45,26.20
2014,09,15,16,46,26.10
2014,09,15,16,47,26.10
2014,09,15,16,48,26.10
2014,09,15,16,49,26.10
2014,09,15,16,50,26.00
2014,09,15,16,51,26.00
2014,09,15,16,52,26.00
2014,09,15,16,53,26.00
2014,09,15,16,54,25.90
2014,09,15,16,55,25.90
2014,09,15,16,56,25.90
2014,09,15,16,57,25.90
2014,09,15,16,58,25.90
2014,09,15,16,59,25.90
2014,09,15,17,00,25.90
2014,09,15,17,01,25.90
2014,09,15,17,02,25.90
2014,09,15,17,03,25.90
2014,09,15,17,04,25.90
2014,09,15,17,05,25.90
2014,09,15,17,06,25.90
2014,09,15,17,07,25.90
2014,09,15,17,08,25.90
2014,09,15,17,09,25.90
2014,09,15,17,10,25.90
2014,09,15,17,11,25.90
2014,09,15,17,12,25.90
2014,09,15,17,13,25.90
2014,09,15,17,14,25.80
2014,09,15,17,15,25.80
2014,09,15,17,16,25.80
2014,09,15,17,17,25.80
2014,09,15,17,18,25.80
2014,09,15,17,19,25.80
2014,09,15,17,20,25.80
2014,09,15,17,21,25.80
2014,09,15,17,22,25.70
2014,09,15,17,23,25.70
2014,09,15,17,24,25.70
2014,09,15,17,25,25.70
2014,09,15,17,26,25.70
2014,09,15,17,27,25.60